Baton Rouge, LA

12:06 AM CST on December 11, 2017 (GMT -0600)
Baton Rouge Metro-Ryan

Weather History for KBTR - December, 2013

Change the Weather History Date:

Sunday, December 22, 2013

  Actual Average Record
Temperature  
Mean Temperature 59 °F 52 °F  
Max Temperature 67 °F 63 °F 80 °F (1970)
Min Temperature 50 °F 42 °F 13 °F (1989)
Degree Days  
Heating Degree Days 6 13  
Month to date heating degree days 261 258  
Since 1 July heating degree days 548 493  
Cooling Degree Days 0 1  
Month to date cooling degree days 44 22  
Year to date cooling degree days 2710 2823  
Growing Degree Days 8 (Base 50)    
Moisture  
Dew Point 54 °F    
Average Humidity 78    
Maximum Humidity 93    
Minimum Humidity 63    
Precipitation  
Precipitation 0.05 in 0.19 in 2.15 in (1912)
Month to date precipitation 3.20 3.90  
Year to date precipitation 68.34 58.95  
Snow  
Snow 0.00 in - - ()
Month to date snowfall 0.0  
Since 1 July snowfall 0.0  
Snow Depth 0.00 in    
Sea Level Pressure  
Sea Level Pressure 30.01 in    
Wind  
Wind Speed 3 mph (NNW)    
Max Wind Speed 17 mph    
Max Gust Speed 26 mph    
Visibility 10 miles    
Events Rain    
T = Trace of Precipitation, MM = Missing Value Source: NWS Daily Summary

Daily Weather History Graph

Daily Weather History Graph

Search for Another Location

Airport or City:

Trip Planner

Search our weather history database for the weather conditions in past years. The results will help you decide how hot, cold, wet, or windy it might be!

Date:

Astronomy

Dec. 22, 2013 Rise Set
Actual Time 6:58 AM CST 5:08 PM CST
Civil Twilight 6:31 AM CST 5:35 PM CST
Nautical Twilight 6:01 AM CST 6:05 PM CST
Astronomical Twilight 5:32 AM CST 6:34 PM CST
Moon 10:02 PM CST (12/22) 10:12 AM CST (12/22)
Length of Visible Light 11h 03m
Length of Day
10h 10m
Waning Gibbous, 76% of the Moon is Illuminated
Dec 22
Waning Gibbous
Dec 25
Last Quarter
Jan 1
New
Jan 7
First Quarter
Jan 15
Full

Hourly Weather History & Observations

Time (CST) Temp. Dew Point Humidity Pressure Visibility Wind Dir Wind Speed Gust Speed Precip Events Conditions
12:30 AM 60.8 °F 59.0 °F 94% 29.83 in 10.0 mi Calm Calm - 0.01 in Rain Light Rain
12:53 AM 60.1 °F 57.0 °F 90% 29.88 in 8.0 mi WSW 4.6 mph - 0.01 in Rain Light Rain
1:53 AM 59.0 °F 55.9 °F 90% 29.86 in 10.0 mi Calm Calm - 0.01 in Rain Light Rain
2:53 AM 59.0 °F 55.9 °F 90% 29.86 in 10.0 mi NE 3.5 mph - 0.00 in   Overcast
3:53 AM 59.0 °F 57.0 °F 93% 29.88 in 10.0 mi ENE 3.5 mph - N/A   Overcast
4:53 AM 59.0 °F 57.0 °F 93% 29.88 in 10.0 mi Calm Calm - N/A   Overcast
5:53 AM 57.9 °F 55.9 °F 93% 29.89 in 10.0 mi Calm Calm - 0.00 in   Overcast
6:53 AM 59.0 °F 55.9 °F 90% 29.92 in 10.0 mi Calm Calm - N/A   Overcast
7:53 AM 59.0 °F 55.9 °F 90% 29.94 in 10.0 mi Calm Calm - N/A   Mostly Cloudy
8:53 AM 60.1 °F 57.0 °F 90% 29.96 in 10.0 mi East 3.5 mph - N/A   Mostly Cloudy
9:53 AM 61.0 °F 55.9 °F 83% 29.99 in 10.0 mi Calm Calm - N/A   Mostly Cloudy
10:53 AM 62.1 °F 55.9 °F 80% 29.99 in 10.0 mi East 4.6 mph - 0.00 in   Mostly Cloudy
11:53 AM 64.0 °F 55.9 °F 75% 29.99 in 10.0 mi East 4.6 mph - N/A   Unknown
12:53 PM 64.9 °F 55.9 °F 73% 29.97 in 10.0 mi Calm Calm - N/A   Overcast
1:53 PM 66.0 °F 55.9 °F 70% 29.97 in 10.0 mi NW 4.6 mph - 0.00 in   Overcast
2:53 PM 66.9 °F 57.9 °F 73% 29.99 in 10.0 mi Calm Calm - N/A   Overcast
3:53 PM 64.9 °F 52.0 °F 63% 30.01 in 10.0 mi ESE 3.5 mph - N/A   Overcast
4:53 PM 64.9 °F 52.0 °F 63% 30.03 in 8.0 mi NW 4.6 mph - 0.00 in Rain Light Rain
5:53 PM 59.0 °F 54.0 °F 83% 30.04 in 10.0 mi WNW 4.6 mph - 0.03 in Rain Light Rain
6:53 PM 59.0 °F 52.0 °F 78% 30.06 in 10.0 mi WNW 4.6 mph - 0.00 in Rain Light Rain
7:53 PM 59.0 °F 54.0 °F 83% 30.12 in 10.0 mi WNW 5.8 mph - 0.00 in   Mostly Cloudy
8:53 PM 57.9 °F 54.0 °F 87% 30.12 in 10.0 mi Variable 3.5 mph - 0.00 in   Overcast
9:53 PM 55.9 °F 52.0 °F 87% 30.14 in 10.0 mi NW 8.1 mph - N/A   Mostly Cloudy
10:08 PM 55.4 °F 51.8 °F 88% 30.15 in 10.0 mi NW 6.9 mph - N/A   Mostly Cloudy
10:23 PM 55.4 °F 51.8 °F 88% 30.16 in 10.0 mi WNW 11.5 mph 18.4 mph N/A   Overcast
10:37 PM 55.4 °F 51.8 °F 88% 30.17 in 10.0 mi NW 11.5 mph 17.3 mph N/A   Overcast
10:53 PM 53.1 °F 48.9 °F 86% 30.19 in 10.0 mi NW 8.1 mph - N/A   Overcast
11:48 PM 51.8 °F 48.2 °F 88% 30.21 in 10.0 mi NW 10.4 mph - N/A   Overcast
11:53 PM 50.0 °F 46.9 °F 89% 30.21 in 10.0 mi NW 10.4 mph 16.1 mph N/A   Overcast